Weather History for KPZQ - September, 2013

Change the Weather History Date:

Friday, September 13, 2013

  Actual Average (KAPN) Record (KAPN)
Temperature  
Mean Temperature 50 °F 59 °F  
Max Temperature 55 °F 70 °F 92 °F (1952)
Min Temperature 43 °F 48 °F 28 °F (1943)
Degree Days  
Heating Degree Days 16 7  
Month to date heating degree days 70  
Since 1 July heating degree days 185  
Cooling Degree Days 0 1  
Month to date cooling degree days 15  
Year to date cooling degree days 281  
Moisture  
Dew Point 40 °F    
Average Humidity 68    
Maximum Humidity 87    
Minimum Humidity 53    
Precipitation  
Precipitation 0.00 in 0.10 in 1.83 in (1961)
Month to date precipitation 1.30  
Year to date precipitation 20.08  
Sea Level Pressure  
Sea Level Pressure 30.13 in    
Wind  
Wind Speed 11 mph (NNW)    
Max Wind Speed 15 mph    
Max Gust Speed 24 mph    
Visibility 10 miles    
Events      
T = Trace of Precipitation, MM = Missing Value Source: NWS Daily Summary

Daily Weather History Graph

Daily Weather History Graph

Search for Another Location

Airport or City:

Trip Planner

Search our weather history database for the weather conditions in past years. The results will help you decide how hot, cold, wet, or windy it might be!

Date:

Astronomy

Sep. 13, 2013 Rise Set
Actual Time 7:11 AM EDT 7:49 PM EDT
Civil Twilight 6:41 AM EDT 8:19 PM EDT
Nautical Twilight 6:06 AM EDT 8:54 PM EDT
Astronomical Twilight 5:29 AM EDT 9:31 PM EDT
Moon 3:50 PM EDT (9/13) 12:27 AM EDT (9/13)
Length of Visible Light 13h 37m
Length of Day
12h 38m
First Quarter, 61% of the Moon is Illuminated
Sep 13
First Quarter
Sep 19
Full
Sep 26
Last Quarter
Oct 4
New
Oct 11
First Quarter

Hourly Weather History & Observations

Time (EDT) Temp. Windchill Dew Point Humidity Pressure Visibility Wind Dir Wind Speed Gust Speed Precip Events Conditions
12:14 AM 53.1 °F - 45.7 °F 76% 30.04 in 10.0 mi North 12.7 mph 19.6 mph N/A   Overcast
12:35 AM 53.2 °F - 45.0 °F 73% 30.04 in 10.0 mi North 11.5 mph 24.2 mph N/A   Overcast
12:55 AM 52.7 °F - 45.0 °F 75% 30.04 in 10.0 mi North 15.0 mph 19.6 mph N/A   Overcast
1:15 AM 52.2 °F - 45.0 °F 76% 30.05 in 10.0 mi North 12.7 mph 20.7 mph N/A   Overcast
1:35 AM 52.2 °F - 43.9 °F 73% 30.05 in 10.0 mi North 12.7 mph 19.6 mph N/A   Overcast
1:55 AM 51.4 °F - 42.6 °F 72% 30.05 in 10.0 mi North 13.8 mph 23.0 mph N/A   Overcast
2:15 AM 51.3 °F - 42.8 °F 73% 30.06 in 10.0 mi North 11.5 mph 18.4 mph N/A   Overcast
2:35 AM 51.1 °F - 42.8 °F 73% 30.06 in 10.0 mi North 12.7 mph 19.6 mph N/A   Overcast
2:55 AM 50.5 °F - 42.4 °F 74% 30.06 in 10.0 mi North 11.5 mph - N/A   Mostly Cloudy
3:15 AM 50.2 °F - 41.9 °F 73% 30.06 in 10.0 mi North 12.7 mph 21.9 mph N/A   Mostly Cloudy
3:35 AM 50.4 °F - 41.5 °F 72% 30.07 in 10.0 mi North 10.4 mph 16.1 mph N/A   Overcast
3:54 AM 50.2 °F - 41.0 °F 71% 30.07 in 10.0 mi North 11.5 mph - N/A   Overcast
4:15 AM 49.8 °F - 41.2 °F 72% 30.08 in 10.0 mi North 12.7 mph 18.4 mph N/A   Overcast
4:35 AM 49.8 °F - 40.3 °F 70% 30.08 in 10.0 mi North 11.5 mph 17.3 mph N/A   Overcast
4:54 AM 49.6 °F - 40.5 °F 71% 30.08 in 10.0 mi North 10.4 mph 17.3 mph N/A   Overcast
5:15 AM 49.5 °F - 40.6 °F 72% 30.09 in 10.0 mi North 9.2 mph 19.6 mph N/A   Overcast
5:35 AM 49.3 °F - 40.3 °F 71% 30.09 in 10.0 mi North 13.8 mph 19.6 mph N/A   Overcast
5:55 AM 49.1 °F - 39.2 °F 69% 30.10 in 10.0 mi NNW 10.4 mph 17.3 mph N/A   Overcast
6:15 AM 48.6 °F - 38.3 °F 68% 30.10 in 10.0 mi NNW 11.5 mph 20.7 mph N/A   Overcast
6:35 AM 48.6 °F - 39.2 °F 70% 30.11 in 10.0 mi North 10.4 mph 16.1 mph N/A   Overcast
6:55 AM 48.2 °F - 39.4 °F 72% 30.11 in 10.0 mi North 13.8 mph 18.4 mph N/A   Overcast
7:15 AM 47.7 °F - 38.3 °F 70% 30.13 in 10.0 mi North 11.5 mph 23.0 mph N/A   Overcast
7:35 AM 47.7 °F - 37.4 °F 68% 30.13 in 10.0 mi North 10.4 mph 18.4 mph N/A   Overcast
7:55 AM 47.5 °F - 38.7 °F 71% 30.14 in 10.0 mi North 10.4 mph 18.4 mph N/A   Overcast
8:15 AM 47.5 °F - 37.0 °F 67% 30.14 in 10.0 mi North 9.2 mph 19.6 mph N/A   Overcast
8:34 AM 47.3 °F - 37.8 °F 69% 30.15 in 10.0 mi North 15.0 mph 23.0 mph N/A   Overcast
8:55 AM 47.1 °F - 36.7 °F 67% 30.15 in 10.0 mi North 12.7 mph 19.6 mph N/A   Overcast
9:15 AM 46.9 °F - 36.0 °F 66% 30.15 in 10.0 mi North 11.5 mph 18.4 mph N/A   Overcast
9:35 AM 46.9 °F - 36.5 °F 67% 30.15 in 10.0 mi North 9.2 mph - N/A   Mostly Cloudy
9:55 AM 48.2 °F - 37.2 °F 66% 30.16 in 10.0 mi North 11.5 mph 17.3 mph N/A   Overcast
10:15 AM 48.0 °F - 37.6 °F 67% 30.16 in 10.0 mi North 11.5 mph 18.4 mph N/A   Mostly Cloudy
10:35 AM 48.6 °F - 38.3 °F 68% 30.17 in 10.0 mi North 9.2 mph 16.1 mph N/A   Mostly Cloudy
10:55 AM 47.5 °F - 37.0 °F 67% 30.18 in 10.0 mi North 8.1 mph 18.4 mph N/A   Overcast
11:14 AM 47.8 °F - 37.6 °F 68% 30.18 in 10.0 mi North 10.4 mph - N/A   Mostly Cloudy
11:35 AM 49.1 °F - 38.1 °F 66% 30.18 in 10.0 mi North 11.5 mph 19.6 mph N/A   Mostly Cloudy
11:54 AM 49.1 °F - 37.8 °F 65% 30.18 in 10.0 mi North 10.4 mph 17.3 mph N/A   Mostly Cloudy
12:15 PM 49.5 °F - 38.3 °F 65% 30.18 in 10.0 mi NNW 10.4 mph 17.3 mph N/A   Mostly Cloudy
12:35 PM 48.4 °F - 37.8 °F 67% 30.18 in 10.0 mi North 9.2 mph 16.1 mph N/A   Overcast
12:54 PM 50.2 °F - 38.1 °F 63% 30.18 in 10.0 mi North 10.4 mph - N/A   Mostly Cloudy
1:15 PM 50.2 °F - 38.3 °F 64% 30.18 in 10.0 mi North 11.5 mph 17.3 mph N/A   Scattered Clouds
1:34 PM 50.7 °F - 38.1 °F 62% 30.18 in 10.0 mi NNW 9.2 mph 17.3 mph N/A   Clear
1:55 PM 51.4 °F - 38.1 °F 60% 30.18 in 10.0 mi North 9.2 mph - N/A   Clear
2:15 PM 51.1 °F - 37.8 °F 60% 30.18 in 10.0 mi North 5.8 mph - N/A   Clear
2:35 PM 51.8 °F - 37.8 °F 59% 30.17 in 10.0 mi North 10.4 mph - N/A   Clear
2:55 PM 52.9 °F - 38.1 °F 57% 30.17 in 10.0 mi NNW 6.9 mph - N/A   Clear
3:15 PM 53.2 °F - 38.1 °F 57% 30.17 in 10.0 mi NNW 9.2 mph - N/A   Clear
3:35 PM 53.6 °F - 37.9 °F 55% 30.16 in 10.0 mi NW 8.1 mph - N/A   Clear
3:55 PM 53.8 °F - 39.0 °F 57% 30.16 in 10.0 mi NNW 11.5 mph 16.1 mph N/A   Clear
4:15 PM 54.1 °F - 38.1 °F 55% 30.16 in 10.0 mi NW 11.5 mph 17.3 mph N/A   Clear
4:35 PM 54.5 °F - 38.1 °F 54% 30.15 in 10.0 mi NNW 9.2 mph - N/A   Clear
4:54 PM 54.7 °F - 38.7 °F 55% 30.15 in 10.0 mi NNW 6.9 mph - N/A   Clear
5:15 PM 54.9 °F - 38.1 °F 53% 30.15 in 10.0 mi NW 8.1 mph - N/A   Clear
5:35 PM 55.2 °F - 38.5 °F 53% 30.15 in 10.0 mi NW 5.8 mph - N/A   Clear
5:54 PM 55.6 °F - 38.5 °F 53% 30.15 in 10.0 mi NW 8.1 mph - N/A   Clear
6:15 PM 55.6 °F - 39.6 °F 55% 30.14 in 10.0 mi NW 8.1 mph - N/A   Clear
6:35 PM 55.4 °F - 40.1 °F 56% 30.15 in 10.0 mi NW 5.8 mph - N/A   Clear
6:55 PM 55.2 °F - 40.1 °F 57% 30.15 in 10.0 mi NW 6.9 mph - N/A   Clear
7:15 PM 54.5 °F - 40.1 °F 58% 30.15 in 10.0 mi NW 6.9 mph - N/A   Clear
7:35 PM 53.6 °F - 40.5 °F 61% 30.14 in 10.0 mi WNW 4.6 mph - N/A   Clear
7:55 PM 51.3 °F - 41.0 °F 68% 30.14 in 10.0 mi West 4.6 mph - N/A   Clear
8:15 PM 50.4 °F - 41.4 °F 71% 30.14 in 10.0 mi West 3.5 mph - N/A   Clear
8:34 PM 49.3 °F - 41.2 °F 74% 30.15 in 10.0 mi West 3.5 mph - N/A   Clear
8:55 PM 47.8 °F - 41.0 °F 77% 30.15 in 10.0 mi West 3.5 mph - N/A   Clear
9:15 PM 47.3 °F - 41.0 °F 79% 30.15 in 10.0 mi West 4.6 mph - N/A   Clear
9:35 PM 47.3 °F - 41.0 °F 79% 30.15 in 10.0 mi West 4.6 mph - N/A   Clear
9:55 PM 47.1 °F - 41.0 °F 79% 30.15 in 10.0 mi West 3.5 mph - N/A   Clear
10:15 PM 46.8 °F - 41.0 °F 80% 30.15 in 10.0 mi West 3.5 mph - N/A   Clear
10:35 PM 45.7 °F 44.4 °F 40.5 °F 82% 30.15 in 10.0 mi West 3.5 mph - N/A   Clear
10:55 PM 45.7 °F 43.4 °F 41.2 °F 84% 30.15 in 10.0 mi West 4.6 mph - N/A   Clear
11:15 PM 46.2 °F 45.0 °F 41.5 °F 84% 30.15 in 10.0 mi West 3.5 mph - N/A   Clear
11:35 PM 44.4 °F 42.0 °F 40.6 °F 87% 30.15 in 10.0 mi West 4.6 mph - N/A   Clear
11:55 PM 43.9 °F 42.3 °F 40.3 °F 87% 30.15 in 10.0 mi West 3.5 mph - N/A   Clear